Regional Weather Roundup
Issued by NWS

Home | Current Version | Previous Version | Graphics & Text | Print | Product List | Glossary On
Versions: 1 2 3 4 5 6 7 8 9 10 11 12 13 14 15 16 17 18 19 20 21 22 23 24 25 26 27 28 29 30 31 32 33 34 35 36 37 38 39 40 41 42 43 44 45 46 47 48 49 50
000
ASUS43 KLSX 192307
RWRMO

WEATHER SUMMARY FOR MISSOURI
NATIONAL WEATHER SERVICE SPRINGFIELD MO
600 PM CDT THU OCT 19 2017

NOTE: "FAIR" INDICATES FEW OR NO CLOUDS BELOW 12,000 FEET WITH NO
       SIGNIFICANT WEATHER AND/OR OBSTRUCTIONS TO VISIBILITY.
       CURRENT SKY AND/OR WEATHER CONDITIONS ARE NOT AVAILABLE FOR
       CHILLICOTHE AND FARMINGTON.

MOZ001>031-035>038-043-044-053-054-200000-
...NORTHERN AND WESTERN MISSOURI...

CITY           SKY/WX    TMP DP  RH WIND       PRES   REMARKS
KANSAS CTY INT PTCLDY    72  53  51 S10       30.05S
KANSAS C DTWN  CLEAR     79  53  40 S15       30.05R
LEE`S SUMMIT   CLOUDY    75  53  46 S10       30.08R
ST JOSEPH      CLEAR     77  53  43 S8        30.03S
CHILLICOTHE      N/A     75  53  46 S3        30.07S
KIRKSVILLE     CLEAR     68  56  65 SE7       30.10S

$$
MOZ066>068-077>081-088>096-101>105-200000-
...SOUTHWEST MISSOURI...

CITY           SKY/WX    TMP DP  RH WIND       PRES   REMARKS
SPRINGFIELD    CLOUDY    72  49  44 S7        30.13S
JOPLIN         MOCLDY    71  53  52 S7        30.11F
BRANSON        CLOUDY    75  45  33 SE7       30.16S

$$
MOZ032>034-039>042-045>050-055>058-069>072-200000-
...CENTRAL MISSOURI...

CITY           SKY/WX    TMP DP  RH WIND       PRES   REMARKS
COLUMBIA       CLEAR     75  52  44 SE5       30.12S
JEFFERSON CITY CLEAR     77  50  38 SE5       30.11R
ROLLA          CLEAR     72  53  51 SE5       30.14S
SEDALIA        CLEAR     73  54  51 S7        30.11S
WHITEMAN AFB   CLEAR     69  54  58 S7        30.05S
WARRENSBURG    CLEAR     73  52  46 S5        30.08S
OSAGE BEACH    CLEAR     74  55  51 CALM      30.12F

$$
MOZ051-052-059>065-200000-
...EAST CENTRAL MISSOURI...

CITY           SKY/WX    TMP DP  RH WIND       PRES   REMARKS
ST LOUIS INTL  PTCLDY    75  52  44 SE7       30.14S
SPIRIT OF STL  CLEAR     70  59  68 CALM      30.12S
ST CHARLES     CLEAR     76  49  38 SE5       30.12S

$$
MOZ072>076-082>087-097>100-106>115-200000-
...SOUTH CENTRAL AND SOUTHEAST MISSOURI...

CITY           SKY/WX    TMP DP  RH WIND       PRES   REMARKS
CAPE GIRARDEAU CLEAR     72  48  42 S6        30.17S
FARMINGTON     CLEAR     71  48  43 S6        30.17S
POPLAR BLUFF   CLEAR     72  53  51 S5        30.16S
WEST PLAINS    CLEAR     75  44  33 SE5       30.17F

$$



USA.gov is the U.S. government's official web portal to all federal, state and local government web resources and services.